User: anonymous   Login
Location: *
(40.9167°N, 9.5000°E)
Time: 18:02:34
(UTC+00:00)
Language:

Terra - Orbit

View from above orbital plane
View from above orbital plane
View from above satellite
View from above satellite

Ground track
Ground track

The orbit data is extracted from the following two-line orbital elements,

1 25994U 99068A   20185.44510636 -.00000004  00000-0  91893-5 0  9996
2 25994  98.2134 259.5082 0001419  92.9542 267.1821 14.57113307 92645
Epoch (UTC): 03 July 2020 10:40:57
Eccentricity: 0.0001419
inclination: 98.2134°
perigee height: 701 km
apogee height: 703 km
right ascension of ascending node: 259.5082°
argument of perigee: 92.9542°
revolutions per day: 14.57113307
mean anomaly at epoch: 267.1821°
orbit number at epoch: 9264

The dashed part of the orbit path shows where the satellite is in the earth's shadow,  

DLR